This demonstration page uses our WeatherBlox Daily Observations layout. Learn more.

Left ArrowRight Arrow

Hourly Observations for November 21, 2020

Temp ( °F °C ) Dew Point ( °F °C ) Humidity (%) Winds ( mph kmh ) Pressure ( in mb ) Visibility ( mi km ) Precip ( " mm )
12:56 am 00:56 Mostly Cloudy 37 2.8 29 -1.7 73 73 NNE 9 15 30.53 1034 10 16 0.00 0.00
1:56 am 01:56 Mostly Cloudy 35 1.7 30 -1.1 82 82 NNE 6 9 30.53 1034 10 16 0.00 0.00
2:56 am 02:56 Partly Cloudy 33 0.6 30 -1.1 89 89 NE 5 7 30.53 1034 10 16 0.00 0.00
3:56 am 03:56 Cloudy 35 1.7 32 0 89 89 ENE 5 7 30.51 1033 10 16 0.00 0.00
4:56 am 04:56 Clear 34 1.1 32 0 92 92 ENE 6 9 30.52 1034 10 16 0.00 0.00
5:56 am 05:56 Clear 33 0.6 31 -0.6 92 92 ENE 7 11 30.53 1034 9 14 0.00 0.00
6:56 am 06:56 Clear 32 0 30 -1.1 92 92 NE 7 11 30.53 1034 8 13 0.00 0.00
7:56 am 07:56 Sunny with Mist and Fog 31 -0.6 29 -1.7 92 92 Calm 30.52 1033 6 10 0.00 0.00
8:56 am 08:56 Mostly Cloudy 34 1.1 32 0 92 92 NE 6 9 30.51 1033 7 11 0.00 0.00
9:56 am 09:56 Cloudy 37 2.8 34 1.1 89 89 E 5 7 30.51 1033 10 16 0.00 0.00
10:56 am 10:56 Mostly Cloudy 40 4.4 34 1.1 79 79 SE 8 13 30.49 1033 10 16 0.00 0.00
11:56 am 11:56 Cloudy 42 5.6 31 -0.6 65 65 ESE 9 15 30.46 1031 10 16 0.00 0.00
12:56 pm 12:56 Cloudy with Light Rain 42 5.6 34 1.1 73 73 ESE 5 7 30.43 1030 10 16 0.00 0.00
1:56 pm 13:56 Cloudy 43 6.1 32 0 65 65 SE 12 19 30.40 1030 10 16 0.00 0.00
2:56 pm 14:56 Cloudy 44 6.7 32 0 63 63 SE 10 17 30.40 1029 10 16 0.00 0.00
3:56 pm 15:56 Mostly Cloudy 44 6.7 34 1.1 68 68 SE 12 19 30.36 1028 10 16 0.00 0.00
4:56 pm 16:56 Cloudy 43 6.1 34 1.1 71 71 SE 7 11 30.36 1028 10 16 0.00 0.00
5:56 pm 17:56 Mostly Cloudy 37 2.8 32 0 82 82 ESE 6 9 30.37 1029 10 16 0.00 0.00
6:56 pm 18:56 Cloudy 38 3.3 33 0.6 83 83 SSE 3 6 30.37 1029 10 16 0.00 0.00
7:56 pm 19:56 Cloudy 38 3.3 34 1.1 86 86 S 7 11 30.38 1029 10 16 0.00 0.00
8:56 pm 20:56 Cloudy 36 2.2 33 0.6 89 89 S 6 9 30.37 1029 10 16 0.00 0.00
9:56 pm 21:56 Clear 35 1.7 32 0 89 89 Calm 30.39 1029 10 16 0.00 0.00
10:19 pm 22:19 Mostly Clear with Mist and Fog 30 -1 27 -3 86 86 Calm 30.44 1031 2 3 0.00 0.00
10:25 pm 22:25 Mostly Clear with Mist and Fog 28 -2 27 -3 93 93 SSE 3 6 30.45 1031 1 1 0.00 0.00
10:33 pm 22:33 Clear with Freezing Fog 28 -2 27 -3 93 93 S 3 6 30.45 1031 1 1 0.00 0.00
10:36 pm 22:36 Clear with Mist and Fog 28 -2 27 -3 93 93 S 5 7 30.45 1031 1 2 0.00 0.00
10:39 pm 22:39 Clear with Mist and Fog 28 -2 28 -2 100 100 S 6 9 30.45 1031 3 5 0.00 0.00
10:56 pm 22:56 Clear with Mist and Fog 31 -0.6 30 -1.1 96 96 S 3 6 30.39 1029 2 3 0.00 0.00
11:00 pm 23:00 Mostly Clear with Light Wintry Mix 30 -1 30 -1 100 100 S 5 7 30.44 1031 1 2 0.00 0.00
11:04 pm 23:04 Partly Cloudy with Light Wintry Mix 30 -1 28 -2 93 93 S 6 9 30.44 1031 1 1 0.00 0.00
11:10 pm 23:10 Mostly Cloudy with Mist and Fog 30 -1 28 -2 93 93 S 6 9 30.44 1031 1 2 0.00 0.00
11:13 pm 23:13 Mostly Cloudy with Mist and Fog 30 -1 28 -2 93 93 S 6 9 30.44 1031 2 3 0.00 0.00
11:16 pm 23:16 Mostly Cloudy with Mist and Fog 30 -1 28 -2 93 93 S 6 9 30.44 1031 1 2 0.00 0.00
11:19 pm 23:19 Mostly Cloudy with Freezing Fog 28 -2 27 -3 93 93 S 6 9 30.45 1031 1 1 0.00 0.00
11:31 pm 23:31 Partly Cloudy with Light Wintry Mix 28 -2 27 -3 93 93 SSW 5 7 30.45 1031 1 2 0.00 0.00
11:35 pm 23:35 Partly Cloudy with Light Wintry Mix 28 -2 27 -3 93 93 SSW 5 7 30.45 1031 2 3 0.00 0.00
11:43 pm 23:43 Mostly Clear 28 -2 27 -3 93 93 SSW 3 6 30.45 1031 8 13 0.00 0.00
11:52 pm 23:52 Clear with Light Wintry Mix 28 -2 28 -2 100 100 SSW 3 6 30.45 1031 2 2 0.00 0.00
11:56 pm 23:56 Clear with Light Wintry Mix 29 -1.7 28 -2.2 96 96 SW 5 7 30.38 1029 1 2 0.00 0.00

Powered by AerisWeather